This is the latest recevied weather packets stored in our database for station/object N6ZHV-13. If no packets are shown the sender has not sent any weather packets the latest 10 day(s).
| Time | Temp. | Humidity | Pressure | Rain* | Wind** | Luminosity | Snow |
|---|---|---|---|---|---|---|---|
| 1778008191 | 17.22° C | 55% | 1017.4 hPa | 0 mm | - | - | - |
| 1778007892 | 16.67° C | 53% | 1017.4 hPa | 0 mm | - | - | - |
| 1778007592 | 16.67° C | 57% | 1017.4 hPa | 0 mm | - | - | - |
| 1778007291 | 17.22° C | 54% | 1017.4 hPa | 0 mm | - | - | - |
| 1778006992 | 17.22° C | 57% | 1017.4 hPa | 0 mm | - | - | - |
| 1778006692 | 17.22° C | 57% | 1017.4 hPa | 0 mm | - | - | - |
| 1778006391 | 16.67° C | 57% | 1017.5 hPa | 0 mm | - | - | - |
| 1778006092 | 16.67° C | 58% | 1017.4 hPa | 0 mm | - | - | - |
| 1778005792 | 16.67° C | 58% | 1017.4 hPa | 0 mm | - | - | - |
| 1778005492 | 16.67° C | 60% | 1017.4 hPa | 0 mm | - | - | - |
| 1778005192 | 16.67° C | 62% | 1017.5 hPa | 0 mm | - | - | - |
| 1778004892 | 16.11° C | 63% | 1017.5 hPa | 0 mm | - | - | - |
| 1778004592 | 16.11° C | 67% | 1017.5 hPa | 0 mm | - | - | - |
| 1778004292 | 16.11° C | 66% | 1017.5 hPa | 0 mm | - | - | - |
| 1778003992 | 16.11° C | 67% | 1017.5 hPa | 0 mm | - | - | - |
| 1778003692 | 15.56° C | 66% | 1017.5 hPa | 0 mm | - | - | - |
| 1778003392 | 16.11° C | 71% | 1017.5 hPa | 0 mm | - | - | - |
| 1778003092 | 15.56° C | 70% | 1017.4 hPa | 0 mm | - | - | - |
| 1778002792 | 15.56° C | 71% | 1017.5 hPa | 0 mm | - | - | - |
| 1778002492 | 15° C | 73% | 1017.4 hPa | 0 mm | - | - | - |
| 1778002192 | 15° C | 73% | 1017.4 hPa | 0 mm | - | - | - |
| 1778001892 | 15° C | 76% | 1017.5 hPa | 0 mm | - | - | - |
| 1778001592 | 14.44° C | 78% | 1017.5 hPa | 0 mm | - | - | - |
| 1778001292 | 14.44° C | 81% | 1017.5 hPa | 0 mm | - | - | - |
| 1778000992 | 13.89° C | 83% | 1017.4 hPa | 0 mm | - | - | - |
* Rain latest hour (hover to see other rain measurements)
** Current wind speed in m/s (hover to see current wind gust speed)